Location: Bay Ridge
(40.6340°N, 74.0146°W)
Time: 11:15:32
(UTC+00:00)

Cosmos 2322 Rocket - Pass Details

Date: 15 November 2019
Orbit: 832 x 851 km, 71.0° (Epoch: 09 December)

Event Time Altitude Azimuth Distance (km) Brightness Sun altitude
Exits shadow 10:34:47 - 337° (NNW) 3,377 5.0 -13.0°
Reaches altitude 10° 10:37:10 10° 339° (NNW) 2,467 4.3 -12.5°
Maximum altitude 10:42:51 78° 66° (ENE) 867 2.4 -11.5°
Drops below altitude 10° 10:48:31 10° 153° (SSE) 2,464 5.3 -10.5°
Sets 10:50:58 0° 155° (SSE) 3,397 6.0 -10.0°
